Measurements were made at the meteorological tower in Juelich (50.90 N / 6.40 E) at an altitude of 100 m,
"Instrument: Fast Greenhouse Gas Analyzer (FGGA), Los Gatos Inc.",
Responsible PI: Dr. Marc von Hobe; Forschungszentrum Juelich GmbH; IEK-7; email: m.von.hobe@fz-juelich.de,
NaN or negative numbers are fill values (i.e. no valid measurements were made at that time),
Uncertainties are given as the 1-sigma standard deviation over each 10 minute intervals. In each interval ~600 individual measurements are carried out so that the standard error of the mean is approximately sigma/sqrt(600).,
time_utc,CO2_ppm,stdev_CO2_ppm,CH4_ppm,stdev_CH4_ppm,H2O_ppm,stdev_H2O_ppm
"2014-11-01 00:05:00 000",400.125,1.06059,1.91217,0.00603384,9517.84,56.9851
"2014-11-01 00:15:00 000",401.061,1.09876,1.91510,0.00513132,9461.96,56.5845
"2014-11-01 00:25:00 000",401.531,1.09828,1.91442,0.00553994,9468.64,62.7270
"2014-11-01 00:35:00 000",401.459,1.01930,1.91308,0.00485090,9464.71,57.9409
"2014-11-01 00:45:00 000",401.005,1.11915,1.91004,0.00520744,9452.23,58.6285
"2014-11-01 00:55:00 000",401.031,1.03100,1.90824,0.00484920,9419.33,58.8074
"2014-11-01 01:05:00 000",400.560,1.15404,1.90621,0.00565420,9398.88,55.8843
"2014-11-01 01:15:00 000",400.318,1.05775,1.90484,0.00579732,9355.26,57.1770
"2014-11-01 01:25:00 000",400.968,1.27027,1.90763,0.00668026,9309.12,59.3117
"2014-11-01 01:35:00 000",401.571,1.05909,1.91019,0.00524185,9319.06,56.4105
"2014-11-01 01:45:00 000",401.810,0.984145,1.90932,0.00468226,9300.13,58.1290
"2014-11-01 01:55:00 000",402.300,0.900989,1.91157,0.00436877,9282.47,55.2175
"2014-11-01 02:05:00 000",402.776,1.13953,1.91314,0.00530192,9275.66,56.5113
"2014-11-01 02:15:00 000",402.569,1.11119,1.90993,0.00531801,9285.80,58.4790
"2014-11-01 02:25:00 000",402.077,0.978658,1.90627,0.00534989,9237.11,57.4841
"2014-11-01 02:35:00 000",401.753,0.823836,1.90529,0.00436227,9210.91,54.6305
"2014-11-01 02:45:00 000",402.593,1.10943,1.90722,0.00477141,9185.58,56.6327
"2014-11-01 02:55:00 000",403.160,1.32704,1.90879,0.00569052,9222.81,59.6496
"2014-11-01 03:05:00 000",403.382,1.11565,1.91027,0.00608771,9203.79,63.6213
"2014-11-01 03:15:00 000",402.858,0.945943,1.90872,0.00515567,9220.24,57.8964
"2014-11-01 03:25:00 000",402.908,1.01808,1.90816,0.00483066,9195.25,60.8185
"2014-11-01 03:35:00 000",403.487,1.03874,1.91181,0.00542206,9164.63,56.1993
"2014-11-01 03:45:00 000",403.916,1.09086,1.91256,0.00488154,9201.96,64.0115
"2014-11-01 03:55:00 000",404.257,1.04920,1.91309,0.00520551,9222.81,64.8069
"2014-11-01 04:05:00 000",404.175,1.01172,1.91540,0.00516824,9224.54,78.0327
"2014-11-01 04:15:00 000",404.052,0.999580,1.91581,0.00476929,9286.83,75.6563
"2014-11-01 04:25:00 000",404.370,1.15232,1.91418,0.00469571,9269.06,76.6423
"2014-11-01 04:35:00 000",404.696,1.21310,1.91485,0.00553534,9229.23,78.8740
"2014-11-01 04:45:00 000",404.986,1.28881,1.91822,0.00483377,9241.02,77.5618
"2014-11-01 04:55:00 000",405.397,1.36285,1.91868,0.00632298,9241.27,104.063
"2014-11-01 05:05:00 000",405.098,1.42026,1.91634,0.00611331,9257.38,80.1362
"2014-11-01 05:15:00 000",406.363,1.01055,1.92353,0.00495520,9228.60,97.5599
"2014-11-01 05:25:00 000",406.239,0.989946,1.92661,0.00486843,9270.58,71.3948
"2014-11-01 05:35:00 000",405.632,1.01393,1.92686,0.00382164,9330.70,73.6217
"2014-11-01 05:45:00 000",405.999,0.929800,1.92734,0.00437153,9318.97,76.2949
"2014-11-01 05:55:00 000",407.933,1.12471,1.93390,0.00485651,9294.19,81.2580
"2014-11-01 06:05:00 000",407.719,1.16550,1.93527,0.00575506,9367.82,86.8724
"2014-11-01 06:15:00 000",407.917,1.43273,1.93997,0.00418792,9438.50,97.3313
"2014-11-01 06:25:00 000",407.948,1.24366,1.93704,0.00477825,9449.75,86.1733
"2014-11-01 06:35:00 000",407.898,1.05981,1.93533,0.00385980,9395.05,98.8520
"2014-11-01 06:45:00 000",408.624,1.06801,1.93353,0.00408895,9369.30,78.7076
"2014-11-01 06:55:00 000",408.583,0.882852,1.93014,0.00330305,9382.51,87.8276
"2014-11-01 07:05:00 000",409.075,0.910889,1.92993,0.00349512,9380.26,97.6990
"2014-11-01 07:15:00 000",408.385,1.44537,1.92966,0.00497905,9355.69,101.423
"2014-11-01 07:25:00 000",409.442,1.35249,1.93259,0.00432392,9246.85,76.2053
"2014-11-01 07:35:00 000",409.679,0.925202,1.93330,0.00325927,9319.80,72.6040
"2014-11-01 07:45:00 000",409.558,1.22407,1.93294,0.00383071,9441.28,117.794
"2014-11-01 07:55:00 000",409.982,1.35534,1.93396,0.00422210,9476.70,81.9982
"2014-11-01 08:05:00 000",410.949,1.56782,1.93795,0.00427537,9500.04,80.2356
"2014-11-01 08:15:00 000",412.201,1.76880,1.94151,0.00459132,9553.89,85.9802
"2014-11-01 08:25:00 000",411.614,1.40426,1.94299,0.00416961,9664.67,65.6040
"2014-11-01 08:35:00 000",409.597,1.71904,1.94204,0.00424945,9718.36,67.4380
"2014-11-01 08:45:00 000",409.161,2.37799,1.94200,0.00586459,9718.97,72.3692
"2014-11-01 08:55:00 000",407.704,2.02201,1.94180,0.00498568,9711.16,80.4255
"2014-11-01 09:05:00 000",407.725,1.48818,1.94369,0.00469549,9742.18,95.4440
"2014-11-01 09:15:00 000",407.617,1.52280,1.94514,0.00425546,9852.42,133.119
"2014-11-01 09:25:00 000",407.670,1.53231,1.94599,0.00385872,9900.91,106.109
"2014-11-01 09:35:00 000",408.269,1.11356,1.94735,0.00342277,9892.06,107.400
"2014-11-01 09:45:00 000",407.573,1.08916,1.94676,0.00373070,10317.2,65.5702
"2014-11-01 09:55:00 000",407.325,0.945967,1.95101,0.00412241,10379.9,68.0658
"2014-11-01 10:05:00 000",406.291,1.24360,1.94852,0.00411007,10387.5,71.0895
"2014-11-01 10:15:00 000",404.440,1.38199,1.94448,0.00424687,10351.3,57.6957
"2014-11-01 10:25:00 000",404.646,0.918980,1.95501,0.00605657,10420.2,85.1613
"2014-11-01 10:35:00 000",404.715,0.973657,1.96137,0.00474803,10751.2,107.343
"2014-11-01 10:45:00 000",405.184,0.995153,1.95621,0.00434481,10942.7,69.5284
"2014-11-01 10:55:00 000",405.219,0.911999,1.95614,0.00393056,11146.1,90.3427
"2014-11-01 11:05:00 000",404.434,0.850265,1.96044,0.00377723,11299.3,73.5510
"2014-11-01 11:15:00 000",403.096,1.00707,1.95617,0.00557853,11265.3,92.5867
"2014-11-01 11:25:00 000",401.847,0.999985,1.96064,0.00605272,11371.5,80.3299
"2014-11-01 11:35:00 000",400.123,1.19471,1.95512,0.0100705,11347.6,77.5154
"2014-11-01 11:45:00 000",401.413,1.23722,1.96360,0.00836713,11555.1,131.582
"2014-11-01 11:55:00 000",401.547,1.06295,1.97167,0.00582157,11818.5,104.421
"2014-11-01 12:05:00 000",400.784,1.16197,1.97666,0.00879960,11982.9,93.0492
"2014-11-01 12:15:00 000",400.963,1.00434,1.98596,0.00861885,12141.2,99.1151
"2014-11-01 12:25:00 000",402.385,0.970133,1.99762,0.00826646,12172.3,100.303
"2014-11-01 12:35:00 000",400.906,1.05134,1.98616,0.0121057,12290.9,84.9770
"2014-11-01 12:45:00 000",400.559,1.31604,1.99155,0.0154267,12247.5,81.7099
"2014-11-01 12:55:00 000",399.248,1.24815,1.97230,0.0117956,12183.8,91.8948
"2014-11-01 13:05:00 000",398.596,1.17482,1.96366,0.00946070,11990.0,118.720
"2014-11-01 13:15:00 000",398.112,0.974378,1.96213,0.00798049,11620.9,197.712
"2014-11-01 13:25:00 000",398.029,0.852487,1.95810,0.00678370,11197.3,144.754
"2014-11-01 13:35:00 000",398.616,0.807507,1.96240,0.00575893,11109.9,145.148
"2014-11-01 13:45:00 000",399.450,0.919248,1.95725,0.00602244,10973.3,99.5809
"2014-11-01 13:55:00 000",399.694,1.18781,1.95912,0.00822723,11023.4,113.089
"2014-11-01 14:05:00 000",398.267,0.976275,1.94796,0.00658601,10769.3,135.105
"2014-11-01 14:15:00 000",397.964,1.09946,1.94863,0.00791644,10797.0,124.749
"2014-11-01 14:25:00 000",397.060,0.786094,1.94824,0.00638833,10880.6,97.4214
"2014-11-01 14:35:00 000",397.043,0.695487,1.95097,0.00598889,10962.2,101.405
"2014-11-01 14:45:00 000",396.898,0.649802,1.94924,0.00694321,10910.7,116.765
"2014-11-01 14:55:00 000",396.459,0.598272,1.94291,0.00550250,10673.2,74.4526
"2014-11-01 15:05:00 000",396.417,0.811729,1.95424,0.0113185,10825.0,117.941
"2014-11-01 15:15:00 000",395.506,0.636088,1.95097,0.00732555,10929.6,95.9895
"2014-11-01 15:25:00 000",395.898,0.767237,1.95154,0.00723440,10867.0,146.489
"2014-11-01 15:35:00 000",396.541,0.864440,1.94800,0.00648249,10418.8,186.283
"2014-11-01 15:45:00 000",396.388,0.686662,1.93794,0.00822548,10013.0,132.969
"2014-11-01 15:55:00 000",396.122,0.656567,1.92930,0.00560263,9663.27,132.656
"2014-11-01 16:05:00 000",396.038,0.839219,1.93072,0.00525799,9442.41,80.9627
"2014-11-01 16:15:00 000",396.216,0.738561,1.93076,0.00612173,9408.28,108.557
"2014-11-01 16:25:00 000",396.829,1.38793,1.93514,0.0140564,9254.43,123.258
"2014-11-01 16:35:00 000",397.040,0.884024,1.94084,0.0101666,9289.40,92.4403
"2014-11-01 16:45:00 000",397.763,0.770823,1.94613,0.00452007,9450.41,76.3435
"2014-11-01 16:55:00 000",397.792,0.753148,1.94476,0.00365128,9428.24,59.2600
"2014-11-01 17:05:00 000",400.116,1.22462,1.94393,0.00657815,9458.62,80.8986
"2014-11-01 17:15:00 000",402.147,1.26035,1.94818,0.00488989,9627.95,61.7815
"2014-11-01 17:25:00 000",403.397,1.47414,1.95137,0.00564286,9691.37,69.1807
"2014-11-01 17:35:00 000",404.458,0.684185,1.95398,0.00332975,9758.55,57.7543
"2014-11-01 17:45:00 000",404.806,0.929772,1.95449,0.00459459,9681.86,67.0490
"2014-11-01 17:55:00 000",402.379,0.830449,1.95341,0.00603923,9693.60,89.1970
"2014-11-01 18:05:00 000",402.698,0.930072,1.95035,0.00590607,9420.85,73.7859
"2014-11-01 18:15:00 000",406.095,2.27899,1.95815,0.00542646,9426.29,76.0171
"2014-11-01 18:25:00 000",408.583,1.75446,1.96676,0.00468351,9438.60,61.5610
"2014-11-01 18:35:00 000",411.977,1.67533,1.97097,0.00411298,9398.38,60.4997
"2014-11-01 18:45:00 000",413.179,2.76105,1.97189,0.00409080,9454.04,63.3983
"2014-11-01 18:55:00 000",409.722,1.33527,2.00378,0.0298286,9308.11,81.9380
"2014-11-01 19:05:00 000",409.460,1.01652,1.99033,0.0306680,9290.25,54.7238
"2014-11-01 19:15:00 000",409.313,0.784857,1.96774,0.00333816,9339.63,62.0171
"2014-11-01 19:25:00 000",410.071,1.01728,1.97679,0.00582935,9408.40,56.5518
"2014-11-01 19:35:00 000",412.721,2.50662,1.98062,0.00347041,9545.89,56.5584
"2014-11-01 19:45:00 000",418.686,3.67530,1.98072,0.00360145,9605.86,55.8492
"2014-11-01 19:55:00 000",425.194,4.05256,1.98140,0.00386170,9700.46,59.4106
"2014-11-01 20:05:00 000",419.525,3.44084,1.98921,0.00458059,9851.30,65.8304
"2014-11-01 20:15:00 000",422.891,4.69875,1.99119,0.00421732,9941.86,59.9158
"2014-11-01 20:25:00 000",421.240,3.48750,1.99416,0.00444981,10054.6,86.9425
"2014-11-01 20:35:00 000",415.751,2.82538,1.99105,0.00503175,10081.2,57.6968
"2014-11-01 20:45:00 000",415.165,1.49828,1.99309,0.00559397,10069.8,60.9157
"2014-11-01 20:55:00 000",412.848,1.30423,1.99860,0.00413723,10210.9,91.4470
"2014-11-01 21:05:00 000",411.294,0.877961,1.99394,0.00541292,10209.5,63.8949
"2014-11-01 21:15:00 000",412.353,0.857288,1.99765,0.00436513,10228.6,68.6458
"2014-11-01 21:25:00 000",413.383,0.789248,2.00113,0.00361916,10300.1,54.4652
"2014-11-01 21:35:00 000",414.779,1.24814,2.00407,0.00326078,10250.9,58.7657
"2014-11-01 21:45:00 000",420.789,2.28005,2.00684,0.00342719,10310.3,64.7126
"2014-11-01 21:55:00 000",424.546,1.23291,2.00930,0.00360042,10352.5,61.6201
"2014-11-01 22:05:00 000",425.150,2.26924,2.01142,0.00404072,10416.8,56.8213
"2014-11-01 22:15:00 000",421.331,1.59337,2.01033,0.00378802,10437.8,66.6337
"2014-11-01 22:25:00 000",417.882,1.32050,2.01559,0.00476561,10631.1,123.984
"2014-11-01 22:35:00 000",424.161,3.53528,2.02188,0.00733909,10917.1,72.0577
"2014-11-01 22:45:00 000",426.467,3.75470,2.02310,0.0123434,11059.3,67.4243
"2014-11-01 22:55:00 000",425.822,2.78485,2.01763,0.00473501,11151.4,57.6984
"2014-11-01 23:05:00 000",424.372,3.56811,2.02068,0.00487339,11147.0,64.4023
"2014-11-01 23:15:00 000",417.150,3.09587,2.01658,0.00571919,11209.0,60.0770
"2014-11-01 23:25:00 000",413.863,1.75389,2.00773,0.00560951,11237.7,70.2771
"2014-11-01 23:35:00 000",413.116,1.31411,2.00534,0.00742131,11260.6,89.9131
"2014-11-01 23:45:00 000",414.351,1.87571,2.01651,0.0147417,11171.4,164.213
"2014-11-01 23:55:00 000",411.895,2.10728,1.99926,0.0102326,11366.7,96.3243
"2014-11-02 00:05:00 000",410.885,1.30828,2.00940,0.0132338,11292.1,84.3644
"2014-11-02 00:15:00 000",412.445,2.38679,2.01022,0.0133812,11313.4,97.5978
"2014-11-02 00:25:00 000",414.180,2.92260,2.01084,0.0117844,11293.8,99.0163
"2014-11-02 00:35:00 000",416.797,2.15199,2.02726,0.0107428,11165.2,93.4488
"2014-11-02 00:45:00 000",415.498,1.66214,2.01891,0.00846716,11315.9,79.9906
"2014-11-02 00:55:00 000",417.963,2.84790,2.02441,0.0141482,11223.2,220.203
"2014-11-02 01:05:00 000",417.152,2.72589,2.02497,0.0129010,11328.0,113.719
"2014-11-02 01:15:00 000",420.823,3.09945,2.04510,0.0167613,11102.0,155.058
"2014-11-02 01:25:00 000",418.670,3.31208,2.03308,0.0201127,11377.1,176.775
"2014-11-02 01:35:00 000",415.923,2.52447,2.01681,0.0150272,11577.9,127.764
"2014-11-02 01:45:00 000",413.998,1.56781,2.00126,0.00835427,11669.1,80.4589
"2014-11-02 01:55:00 000",417.356,2.11860,2.01661,0.0115810,11476.1,107.182
"2014-11-02 02:05:00 000",417.007,2.62279,2.00992,0.0124882,11569.7,115.464
"2014-11-02 02:15:00 000",421.294,1.53308,2.04236,0.0114228,11146.3,199.994
"2014-11-02 02:25:00 000",417.564,1.90476,2.01938,0.0100663,11543.3,125.428
"2014-11-02 02:35:00 000",414.585,2.50803,2.00593,0.0119110,11708.2,113.282
"2014-11-02 02:45:00 000",413.683,1.38569,2.00060,0.00782388,11734.6,80.2450
"2014-11-02 02:55:00 000",412.685,1.21686,1.99428,0.00619218,11723.2,70.0480
"2014-11-02 03:05:00 000",413.088,0.965077,1.99401,0.00560994,11720.5,75.3367
"2014-11-02 03:15:00 000",413.329,0.931904,1.99042,0.00478122,11744.7,70.4482
"2014-11-02 03:25:00 000",414.265,0.997794,1.99165,0.00456541,11735.2,67.7311
"2014-11-02 03:35:00 000",414.641,1.14303,1.99066,0.00521567,11782.4,61.9782
"2014-11-02 03:45:00 000",415.742,1.64401,1.98790,0.00464764,11772.7,73.7946
"2014-11-02 03:55:00 000",414.890,1.45092,1.98541,0.00375930,11846.7,68.6083
"2014-11-02 04:05:00 000",413.288,0.839278,1.98698,0.00476124,11812.9,77.5269
"2014-11-02 04:15:00 000",413.417,1.05344,1.98577,0.00346470,11879.5,63.7345
"2014-11-02 04:25:00 000",413.162,1.13066,1.99017,0.00459227,11840.0,77.5166
"2014-11-02 04:35:00 000",413.327,1.83674,1.99296,0.00938690,11788.8,94.8760
"2014-11-02 04:45:00 000",413.288,1.15393,1.99169,0.00606131,11788.1,77.8667
"2014-11-02 04:55:00 000",413.426,1.79412,1.99455,0.00779146,11783.7,82.6113
"2014-11-02 05:05:00 000",412.022,1.87634,1.99042,0.0109137,11869.4,80.0507
"2014-11-02 05:15:00 000",411.886,1.26109,1.99057,0.00677090,11925.2,61.0346
"2014-11-02 05:25:00 000",411.651,1.07820,1.98704,0.00728486,11957.6,62.2615
"2014-11-02 05:35:00 000",411.460,1.62583,1.98479,0.00792273,11994.7,81.5140
"2014-11-02 05:45:00 000",410.227,1.00938,1.99514,0.00633673,12083.1,63.4104
"2014-11-02 05:55:00 000",410.819,0.992927,1.98935,0.00824841,12057.4,62.7063
"2014-11-02 06:05:00 000",411.451,1.38887,1.98173,0.00491937,12051.8,62.1188
"2014-11-02 06:15:00 000",418.347,3.04638,1.98063,0.00553623,12055.4,61.2387
"2014-11-02 06:25:00 000",421.310,2.76103,1.97690,0.00531324,12049.8,72.5164
"2014-11-02 06:35:00 000",418.112,1.89812,1.97099,0.00459051,12035.3,70.2556
"2014-11-02 06:45:00 000",415.456,2.46920,1.96634,0.00420790,12033.0,67.5206
"2014-11-02 06:55:00 000",415.252,1.49844,1.97339,0.00622662,11965.2,75.5959
"2014-11-02 07:05:00 000",418.387,3.61865,1.97159,0.00674473,11934.9,72.1963
"2014-11-02 07:15:00 000",416.223,1.98385,1.97040,0.00549082,11887.3,80.6423
"2014-11-02 07:25:00 000",414.183,1.52636,1.96885,0.00429991,11844.7,66.5576
"2014-11-02 07:35:00 000",413.784,1.00743,1.96738,0.00482570,11773.5,81.7048
"2014-11-02 07:45:00 000",415.652,2.50612,1.96899,0.00533398,11601.4,83.9274
"2014-11-02 07:55:00 000",413.104,1.72276,1.97172,0.00873152,11642.2,158.872
"2014-11-02 08:05:00 000",411.820,1.53410,1.97321,0.00920641,11709.4,301.479
"2014-11-02 08:15:00 000",412.278,1.17878,1.97767,0.00786848,11790.3,231.449
"2014-11-02 08:25:00 000",413.990,1.67453,1.98549,0.0113372,11644.2,130.638
"2014-11-02 08:35:00 000",414.673,1.30345,1.98278,0.0128035,11460.1,110.721
"2014-11-02 08:45:00 000",416.889,1.34032,2.00578,0.0152449,11294.0,102.632
"2014-11-02 08:55:00 000",416.242,1.33889,2.00306,0.0128277,11164.5,97.7114
"2014-11-02 09:05:00 000",416.631,2.48796,2.01339,0.0196860,11200.3,125.805
"2014-11-02 09:15:00 000",415.826,2.26054,2.01004,0.0180690,11419.1,101.269
"2014-11-02 09:25:00 000",415.536,1.53276,2.01111,0.0138036,11575.2,142.593
"2014-11-02 09:35:00 000",411.247,2.59651,1.95571,0.0100648,10867.3,296.474
"2014-11-02 09:45:00 000",405.220,3.00738,1.94165,0.00625150,10401.0,101.351
"2014-11-02 09:55:00 000",406.243,3.39453,1.93471,0.00359599,10136.4,123.754
"2014-11-02 10:05:00 000",414.860,4.84189,1.93350,0.00344473,9981.88,69.8970
"2014-11-02 10:15:00 000",412.710,3.80741,1.93420,0.00298688,9961.91,123.113
"2014-11-02 10:25:00 000",407.753,3.44141,1.93234,0.00339304,9749.05,88.7365
"2014-11-02 10:35:00 000",402.113,2.77559,1.92960,0.00305450,9850.33,90.0863
"2014-11-02 10:45:00 000",402.907,2.56186,1.92930,0.00320543,9796.59,60.7379
"2014-11-02 10:55:00 000",403.156,2.62357,1.92914,0.00296122,9841.98,78.8200
"2014-11-02 11:05:00 000",400.201,0.729512,1.93100,0.00279481,9927.93,78.1053
"2014-11-02 11:15:00 000",400.249,0.978137,1.93100,0.00318078,9927.76,83.4330
"2014-11-02 11:25:00 000",399.943,0.945237,1.92739,0.00340066,9909.32,76.4691
"2014-11-02 11:35:00 000",401.526,3.33364,1.92450,0.00330234,9894.47,87.7543
"2014-11-02 11:45:00 000",401.903,3.04433,1.92223,0.00316326,10006.1,61.4372
"2014-11-02 11:55:00 000",399.325,2.04691,1.92134,0.00296957,10098.6,67.8482
"2014-11-02 12:05:00 000",399.700,1.71948,1.91470,0.00375526,10081.2,94.7088
"2014-11-02 12:15:00 000",399.482,1.89842,1.91066,0.00329289,10008.8,84.1589
"2014-11-02 12:25:00 000",399.481,3.61792,1.91328,0.00312272,10082.6,101.038
"2014-11-02 12:35:00 000",408.032,5.01030,1.91266,0.00311658,10279.3,88.6652
"2014-11-02 12:45:00 000",405.931,3.09298,1.91212,0.00318958,10375.4,80.8882
"2014-11-02 12:55:00 000",406.745,3.15677,1.91602,0.00348219,10457.2,81.0277
"2014-11-02 13:05:00 000",398.580,1.80851,1.92403,0.00409898,10575.6,103.419
"2014-11-02 13:15:00 000",396.953,0.613828,1.92661,0.00321411,10632.9,106.560
"2014-11-02 13:25:00 000",397.105,0.679908,1.92736,0.00349098,10835.0,113.235
"2014-11-02 13:35:00 000",398.873,2.48686,1.91990,0.00475531,10963.4,71.6251
"2014-11-02 13:45:00 000",409.220,3.93380,1.90899,0.00309921,11049.6,90.9749
"2014-11-02 13:55:00 000",404.779,2.90294,1.90769,0.00285135,11065.9,59.5182
"2014-11-02 14:05:00 000",398.764,3.77021,1.90885,0.00350093,11108.1,73.7057
"2014-11-02 14:15:00 000",395.952,0.658767,1.90990,0.00302207,11215.2,59.4364
"2014-11-02 14:25:00 000",397.698,1.65119,1.90994,0.00328333,11257.6,71.1821
"2014-11-02 14:35:00 000",398.966,2.13652,1.91189,0.00328759,11378.7,69.3264
"2014-11-02 14:45:00 000",398.042,1.17041,1.91186,0.00314589,11419.4,64.2095
"2014-11-02 14:55:00 000",398.203,0.619916,1.91340,0.00316781,11426.6,65.0717
"2014-11-02 15:05:00 000",398.386,0.629107,1.91469,0.00317989,11485.9,67.8055
"2014-11-02 15:15:00 000",399.317,0.748603,1.91894,0.00364451,11476.9,69.9994
"2014-11-02 15:25:00 000",400.319,0.649149,1.92199,0.00295585,11472.7,71.0172
"2014-11-02 15:35:00 000",400.911,0.720065,1.92480,0.00318651,11455.2,69.3064
"2014-11-02 15:45:00 000",401.846,0.736583,1.92821,0.00352342,11441.8,72.5556
"2014-11-02 15:55:00 000",402.362,0.656904,1.93023,0.00284771,11480.9,68.6385
"2014-11-02 16:05:00 000",403.151,0.828953,1.93352,0.00383583,11496.7,67.0721
"2014-11-02 16:15:00 000",404.357,0.770523,1.93927,0.00378782,11518.2,65.3887
"2014-11-02 16:25:00 000",404.595,0.797468,1.93910,0.00347925,11605.2,65.8047
"2014-11-02 16:35:00 000",404.712,0.706827,1.93847,0.00292462,11649.9,61.6995
"2014-11-02 16:45:00 000",404.925,0.612255,1.93831,0.00293665,11713.7,71.8935
"2014-11-02 16:55:00 000",404.697,0.747315,1.93964,0.00431263,11834.9,62.6375
"2014-11-02 17:05:00 000",405.034,0.792703,1.94119,0.00447738,11809.4,79.8168
"2014-11-02 17:15:00 000",404.897,0.661496,1.93886,0.00303539,11880.9,62.3024
"2014-11-02 17:25:00 000",404.822,0.805802,1.93672,0.00351022,11908.4,69.7402
"2014-11-02 17:35:00 000",405.013,0.761680,1.93880,0.00322279,11926.4,68.5859
"2014-11-02 17:45:00 000",404.586,0.837780,1.93779,0.00350620,11984.1,73.9651
"2014-11-02 17:55:00 000",405.741,0.951762,1.94064,0.00342936,11908.5,90.7050
"2014-11-02 18:05:00 000",406.119,0.739085,1.94461,0.00352303,11955.6,68.7029
"2014-11-02 18:15:00 000",406.843,1.01135,1.94696,0.00391113,11955.4,93.1987
"2014-11-02 18:25:00 000",405.392,1.06776,1.94128,0.00437228,12093.9,74.7480
"2014-11-02 18:35:00 000",405.089,1.16281,1.94080,0.00491350,12124.6,82.2136
"2014-11-02 18:45:00 000",405.178,1.11231,1.94063,0.00434208,12131.0,90.4015
"2014-11-02 18:55:00 000",404.393,0.878838,1.93744,0.00343555,12183.1,77.6166
"2014-11-02 19:05:00 000",404.306,0.852438,1.93978,0.00368710,12235.9,71.1499
"2014-11-02 19:15:00 000",404.506,1.15717,1.94388,0.00313905,12299.0,104.792
"2014-11-02 19:25:00 000",403.301,0.788158,1.94484,0.00318729,12383.1,88.2783
"2014-11-02 19:35:00 000",401.636,1.24535,1.93805,0.00737222,12494.0,76.5735
"2014-11-02 19:45:00 000",401.111,1.62319,1.91650,0.0102073,12418.8,302.328
"2014-11-02 19:55:00 000",397.719,1.41138,1.89508,0.00668600,13136.9,96.8555
"2014-11-02 20:05:00 000",394.455,0.659085,1.88031,0.00374062,13239.0,80.3234
"2014-11-02 20:15:00 000",394.672,0.776126,1.87730,0.00404597,13317.8,84.2099
"2014-11-02 20:25:00 000",396.251,1.11585,1.88979,0.00730268,13358.4,107.042
"2014-11-02 20:35:00 000",396.000,0.681322,1.88536,0.00395925,13193.3,154.997
"2014-11-02 20:45:00 000",395.760,0.769527,1.88381,0.00434900,13070.1,123.236
"2014-11-02 20:55:00 000",396.216,1.11719,1.89280,0.0104292,13108.9,125.668
"2014-11-02 21:05:00 000",399.295,0.705332,1.92031,0.00486434,13432.3,140.628
"2014-11-02 21:15:00 000",400.019,0.647604,1.92880,0.00642002,13453.3,120.760
"2014-11-02 21:25:00 000",400.446,0.568586,1.92848,0.00391842,13478.6,112.728
"2014-11-02 21:35:00 000",400.654,0.677892,1.92980,0.00451635,13466.0,110.180
"2014-11-02 21:45:00 000",401.108,0.606947,1.93095,0.00385957,13462.4,107.517
"2014-11-02 21:55:00 000",401.735,0.690403,1.93532,0.00396196,13472.3,98.2348
"2014-11-02 22:05:00 000",403.657,0.926613,1.94445,0.00452441,13299.2,147.404
"2014-11-02 22:15:00 000",405.181,1.28773,1.94583,0.00478026,12942.8,238.341
"2014-11-02 22:25:00 000",407.229,1.44133,1.94903,0.00682839,12097.0,100.387
"2014-11-02 22:35:00 000",406.051,1.14174,1.93891,0.00600534,12131.4,100.115
"2014-11-02 22:45:00 000",403.273,1.23296,1.92230,0.00619846,12137.4,101.483
"2014-11-02 22:55:00 000",401.869,0.797644,1.91501,0.00343742,12113.3,102.392
"2014-11-02 23:05:00 000",401.088,0.692767,1.91475,0.00359435,12143.4,101.425
"2014-11-02 23:15:00 000",400.632,0.639057,1.91257,0.00339232,12129.9,110.062
"2014-11-02 23:25:00 000",400.337,0.670510,1.90947,0.00349301,12071.1,96.2816
"2014-11-02 23:35:00 000",400.082,0.640225,1.90824,0.00339707,12023.6,102.291
"2014-11-02 23:45:00 000",400.105,0.694729,1.90634,0.00348641,11979.9,98.6691
"2014-11-02 23:55:00 000",400.269,0.635637,1.90789,0.00356625,11926.2,100.676
"2014-11-03 00:05:00 000",400.396,0.721611,1.90713,0.00340338,11946.1,100.809
"2014-11-03 00:15:00 000",400.368,0.729513,1.90600,0.00353753,11947.6,103.868
"2014-11-03 00:25:00 000",399.841,0.653769,1.90409,0.00335969,11968.4,105.370
"2014-11-03 00:35:00 000",399.647,0.658911,1.90286,0.00327271,11983.3,104.194
"2014-11-03 00:45:00 000",399.987,1.27877,1.90229,0.00349995,11959.5,113.623
"2014-11-03 00:55:00 000",399.547,0.702148,1.90308,0.00351957,11929.7,101.812
"2014-11-03 01:05:00 000",400.907,1.12540,1.90621,0.00447247,11874.9,99.2185
"2014-11-03 01:15:00 000",400.840,0.847685,1.90286,0.00327780,11818.7,97.5767
"2014-11-03 01:25:00 000",401.059,1.18382,1.90041,0.00364736,11810.1,95.0749
"2014-11-03 01:35:00 000",399.750,0.886941,1.89901,0.00334251,11795.6,85.2621
"2014-11-03 01:45:00 000",399.184,0.735584,1.89946,0.00353408,11733.5,94.5328
"2014-11-03 01:55:00 000",398.556,0.632457,1.89511,0.00322638,11634.3,105.810
"2014-11-03 02:05:00 000",398.287,0.667926,1.89289,0.00320593,11479.9,88.5953
"2014-11-03 02:15:00 000",399.800,1.76368,1.89063,0.00333915,11400.5,97.3336